Weather History for PASI - November, 2010

Change the Weather History Date:

Tuesday, November 30, 2010

  Actual Average Record
Temperature  
Mean Temperature 36 °F -  
Max Temperature 39 °F 40 °F 52 °F (1959)
Min Temperature 33 °F 32 °F 15 °F (1970)
Degree Days  
Heating Degree Days 29    
Moisture  
Dew Point 32 °F    
Average Humidity 85    
Maximum Humidity 100    
Minimum Humidity 63    
Precipitation  
Precipitation 0.19 in - - ()
Sea Level Pressure  
Sea Level Pressure 29.33 in    
Wind  
Wind Speed 9 mph (ESE)    
Max Wind Speed 22 mph    
Max Gust Speed 30 mph    
Visibility 8 miles    
Events Rain , Snow    
Averages and records for this station are not official NWS values.
T = Trace of Precipitation, MM = Missing Value Source: NWS Daily Summary

Daily Weather History Graph

Daily Weather History Graph

Search for Another Location

Airport or City:

Trip Planner

Search our weather history database for the weather conditions in past years. The results will help you decide how hot, cold, wet, or windy it might be!

Date:

Astronomy

Nov. 30, 2010 Rise Set
Actual Time 8:13 AM AKST 3:26 PM AKST
Civil Twilight 7:26 AM AKST 4:13 PM AKST
Nautical Twilight 6:36 AM AKST 5:03 PM AKST
Astronomical Twilight 5:50 AM AKST 5:49 PM AKST
Moon 1:41 AM AKST (11/30) 12:50 PM AKST (11/30)
Length of Visible Light 8h 47m
Length of Day
7h 13m
Waning Crescent, 28% of the Moon is Illuminated
Nov 30
Waning Crescent
Dec 5
New
Dec 13
First Quarter
Dec 20
Full
Dec 27
Last Quarter

Hourly Weather History & Observations

Time (AKST) Temp. Windchill Dew Point Humidity Pressure Visibility Wind Dir Wind Speed Gust Speed Precip Events Conditions
12:53 AM 35.1 °F 30.1 °F 34.0 °F 96% 29.13 in 7.0 mi East 5.8 mph - 0.02 in Rain Light Rain
1:05 AM 35.6 °F 29.9 °F 33.8 °F 93% 29.14 in 10.0 mi East 6.9 mph - 0.00 in Rain Light Rain
1:49 AM 35.6 °F 30.7 °F 33.8 °F 93% 29.16 in 9.0 mi East 5.8 mph - 0.01 in Rain Light Rain
1:53 AM 36.0 °F 30.3 °F 34.0 °F 93% 29.16 in 7.0 mi East 6.9 mph - 0.02 in Rain Light Rain
2:01 AM 35.6 °F 28.0 °F 33.8 °F 93% 29.17 in 6.0 mi SSE 10.4 mph - 0.00 in Rain Light Rain
2:21 AM 37.4 °F 32.8 °F 35.6 °F 93% 29.17 in 10.0 mi East 5.8 mph - 0.01 in Rain Light Rain
2:29 AM 35.6 °F 29.2 °F 33.8 °F 93% 29.18 in 10.0 mi ENE 8.1 mph - 0.01 in Rain Light Rain
2:41 AM 35.6 °F 29.2 °F 33.8 °F 93% 29.18 in 10.0 mi East 8.1 mph - 0.01 in Rain Light Rain
2:53 AM 36.0 °F 30.3 °F 34.0 °F 93% 29.18 in 10.0 mi East 6.9 mph - 0.01 in   Mostly Cloudy
3:53 AM 36.0 °F 29.0 °F 33.1 °F 89% 29.19 in 10.0 mi East 9.2 mph - N/A   Partly Cloudy
4:33 AM 35.6 °F 27.5 °F 33.8 °F 93% 29.23 in 5.0 mi SSE 11.5 mph - 0.02 in   Overcast
4:50 AM 35.6 °F 26.6 °F 33.8 °F 93% 29.24 in 5.0 mi ESE 13.8 mph 23.0 mph 0.03 in   Overcast
4:53 AM 36.0 °F 28.0 °F 32.0 °F 86% 29.24 in 5.0 mi ESE 11.5 mph 23.0 mph 0.03 in   Overcast
5:06 AM 35.6 °F 29.2 °F 33.8 °F 93% 29.24 in 9.0 mi East 8.1 mph - 0.01 in Snow Light Snow
5:16 AM 35.6 °F 30.7 °F 33.8 °F 93% 29.24 in 10.0 mi East 5.8 mph - 0.01 in Rain Light Rain
5:53 AM 36.0 °F 28.5 °F 33.1 °F 89% 29.26 in 10.0 mi East 10.4 mph - 0.01 in   Mostly Cloudy
6:39 AM 37.4 °F 30.3 °F 33.8 °F 87% 29.29 in 10.0 mi SE 10.4 mph - 0.00 in Rain Light Rain
6:53 AM 36.0 °F 30.3 °F 34.0 °F 93% 29.29 in 10.0 mi SSW 6.9 mph - 0.00 in Rain Light Rain
7:16 AM 37.4 °F 30.8 °F 33.8 °F 87% 29.31 in 10.0 mi SSE 9.2 mph - 0.00 in   Overcast
7:23 AM 37.4 °F 30.8 °F 33.8 °F 87% 29.31 in 10.0 mi SSE 9.2 mph - 0.00 in Rain Light Rain
7:44 AM 35.6 °F 28.0 °F 33.8 °F 93% 29.32 in 5.0 mi ESE 10.4 mph - 0.03 in Snow Light Snow
7:47 AM 35.6 °F 28.0 °F 33.8 °F 93% 29.32 in 2.0 mi ESE 10.4 mph - 0.04 in Snow Light Snow
7:53 AM 34.0 °F 26.0 °F 32.0 °F 92% 29.33 in 1.0 mi East 10.4 mph - 0.07 in Snow Light Snow
8:03 AM 33.8 °F 27.0 °F 32.0 °F 93% 29.32 in 2.5 mi ESE 8.1 mph - 0.01 in Snow Light Snow
8:07 AM 33.8 °F 25.8 °F 33.8 °F 100% 29.32 in 4.0 mi ESE 10.4 mph - 0.01 in Snow Light Snow
8:18 AM 35.6 °F 27.1 °F 33.8 °F 93% 29.33 in 7.0 mi ESE 12.7 mph - 0.01 in Rain , Snow Light Rain
8:41 AM 35.6 °F 27.5 °F 33.8 °F 93% 29.34 in 9.0 mi East 11.5 mph - 0.02 in   Scattered Clouds
8:53 AM 36.0 °F 27.5 °F 32.0 °F 86% 29.34 in 9.0 mi East 12.7 mph - 0.02 in   Partly Cloudy
9:48 AM 37.4 °F 29.8 °F 33.8 °F 87% 29.37 in 2.5 mi South 11.5 mph - 0.00 in Snow Light Snow
9:49 AM 36.0 °F 28.0 °F 33.1 °F 89% 29.38 in 2.5 mi South 11.5 mph - 0.00 in Snow Light Snow
9:55 AM 35.6 °F 29.2 °F 32.0 °F 87% 29.38 in 1.5 mi SSE 8.1 mph - 0.00 in Snow Light Snow
10:02 AM 35.6 °F 28.6 °F 32.0 °F 87% 29.38 in 2.5 mi SE 9.2 mph - 0.01 in Snow Light Snow
10:10 AM 35.6 °F 28.6 °F 32.0 °F 87% 29.38 in 6.0 mi ESE 9.2 mph - 0.01 in Snow Light Snow
10:23 AM 33.8 °F 25.8 °F 32.0 °F 93% 29.38 in 8.0 mi East 10.4 mph - 0.01 in   Mostly Cloudy
10:34 AM 35.6 °F 28.0 °F 32.0 °F 87% 29.38 in 10.0 mi East 10.4 mph - 0.01 in   Partly Cloudy
10:43 AM 35.6 °F 29.9 °F 33.8 °F 93% 29.38 in 10.0 mi East 6.9 mph - 0.01 in   Mostly Cloudy
10:51 AM 35.6 °F 28.6 °F 33.8 °F 93% 29.39 in 10.0 mi ESE 9.2 mph - 0.01 in   Scattered Clouds
10:53 AM 37.0 °F 28.5 °F 33.1 °F 86% 29.39 in 10.0 mi ESE 13.8 mph 17.3 mph 0.01 in   Scattered Clouds
11:53 AM 37.0 °F 28.9 °F 32.0 °F 82% 29.39 in 10.0 mi ESE 12.7 mph - N/A   Mostly Cloudy
12:34 PM 37.4 °F 29.3 °F 30.2 °F 75% 29.39 in 7.0 mi ESE 12.7 mph - N/A   Overcast
12:49 PM 37.4 °F 29.8 °F 30.2 °F 75% 29.40 in 8.0 mi ESE 11.5 mph - 0.00 in   Overcast
12:53 PM 37.9 °F 30.9 °F 30.0 °F 73% 29.40 in 8.0 mi SE 10.4 mph - 0.00 in   Overcast
1:02 PM 37.4 °F 29.8 °F 30.2 °F 75% 29.40 in 10.0 mi ESE 11.5 mph - N/A   Overcast
1:31 PM 37.4 °F 28.9 °F 30.2 °F 75% 29.40 in 10.0 mi ESE 13.8 mph - 0.00 in   Overcast
1:53 PM 37.0 °F 28.9 °F 30.9 °F 79% 29.40 in 10.0 mi ESE 12.7 mph 16.1 mph 0.00 in   Mostly Cloudy
2:53 PM 37.9 °F 31.5 °F 30.9 °F 76% 29.40 in 10.0 mi ESE 9.2 mph - N/A   Overcast
3:53 PM 39.0 °F 31.0 °F 30.0 °F 70% 29.41 in 10.0 mi ESE 13.8 mph - N/A   Overcast
4:53 PM 39.0 °F 31.8 °F 30.0 °F 70% 29.42 in 10.0 mi ESE 11.5 mph 23.0 mph N/A   Overcast
5:53 PM 39.0 °F 30.3 °F 30.9 °F 73% 29.42 in 10.0 mi SE 16.1 mph 21.9 mph N/A   Overcast
6:53 PM 39.0 °F 30.3 °F 30.0 °F 70% 29.43 in 10.0 mi ESE 16.1 mph 23.0 mph N/A   Mostly Cloudy
7:53 PM 39.9 °F 33.4 °F 28.0 °F 63% 29.44 in 10.0 mi East 10.4 mph 18.4 mph N/A   Overcast
8:53 PM 39.9 °F 30.0 °F 28.9 °F 65% 29.46 in 10.0 mi East 21.9 mph 29.9 mph N/A   Partly Cloudy
9:53 PM 39.9 °F 31.4 °F 28.0 °F 63% 29.47 in 10.0 mi ESE 16.1 mph 26.5 mph N/A   Overcast
10:53 PM 39.9 °F 32.5 °F 30.0 °F 68% 29.49 in 10.0 mi ESE 12.7 mph 24.2 mph N/A   Overcast
11:53 PM 39.9 °F 31.8 °F 28.9 °F 65% 29.51 in 10.0 mi ESE 15.0 mph 26.5 mph N/A   Overcast